Location: Rochester
(43.1610°N, 77.6109°W)
Time: 11:46:09
(UTC-04:00)

X-37B - Visible Passes

Search period start: 25 May 2020 00:00
Search period end: 04 June 2020 00:00
Orbit: 389 x 390 km, 44.9° (Epoch: 18 May)

Date Brightness Start Highest point End Pass type
(mag) Time Alt. Az. Time Alt. Az. Time Alt. Az.
29 May ? 04:16:01 13° S 04:17:33 17° SE 04:19:41 10° ESE visible
30 May ? 04:52:57 10° SW 04:56:02 46° SSE 04:59:07 10° E visible
31 May ? 03:57:20 24° S 03:58:15 28° SSE 04:01:04 10° E visible
01 Jun ? 03:01:47 14° ESE 03:01:47 14° ESE 03:02:43 10° ESE visible
01 Jun ? 04:34:04 13° WSW 04:36:51 75° SSE 04:40:03 10° ENE visible
02 Jun ? 03:38:28 42° S 03:39:00 48° SSE 03:42:05 10° E visible
03 Jun ? 02:42:50 18° ESE 02:42:50 18° ESE 02:44:01 10° E visible
03 Jun ? 04:15:07 15° W 04:17:42 78° NNW 04:20:53 10° ENE visible
